Weather in Maloye Dyuryagino

Russia / Kurgan Oblast     55°11′56″N   63°13′33″E
temp.,
°C
wind,
m/s
gust,
m/s
humid.,
%
clouds,
%
prec.,
mm/h
press.,
hPa
HPBL,
m
13 april, tue
tue1323:00+4n2299100 0.0 103955
02:00+3nne229998 0.0 104072
05:00+3nne229995 0.0 104190
08:00+5n128552 0.0 104274
11:00+9w01710 0.0 1041342
14:00+12sw22590 0.0 1040976
17:00+13sw34603 0.0 1039982
20:00+10sw33770 0.0 103830
14 april, wed
wed1423:00+7ssw49855 0.0 1037169
02:00+6ssw511875 0.0 1036213
05:00+5sw51191100 0.0 1035222
08:00+6sw51086100 0.0 1035263
11:00+12wsw567156 0.0 1033411
14:00+16wsw566220 0.0 1031816
17:00+17w45599 0.0 1030965
20:00+13wsw33775 0.0 102926
15 april, thu
thu1523:00+11sw34795 0.0 102956
02:00+9wsw34775 0.0 102847
05:00+8sw33765 0.0 102829
08:00+10sw35685 0.0 1027134
11:00+14sw45445 0.0 1025431
14:00+17sw45325 0.0 1023762
17:00+18sw46315 0.0 1021845
20:00+13sw345023 0.0 102040
16 april, fri
fri1623:00
02:00+9wnw3372100 0.0 101823
05:00+8wnw3378100 0.0 101727
08:00+9wnw257788 0.0 1016124
11:00+14nw45605 0.0 1015743
14:00+15nnw555557 0.0 10151558
17:00+9nne887693 0.1 1017713
20:00+5ne71093100 0.0 1018577
17 april, sat
sat1723:00+3nne6995100 0.1 1016498
02:00+2ne61093100 1.8 1019571
05:00+3ne5781100 1.8 1019796
08:00+2ne567925 0.0 1019593
11:00+5ne44525 0.0 10181212
14:00+6nne334136 0.0 10171693
17:00+7n223870 0.0 10151784
20:00+5s2249100 0.0 101317